Weather History for Waseca, MN

Change the Weather History Date:

Saturday, February 23, 2013

  Actual Average Record
Temperature  
Mean Temperature 11 °F -  
Max Temperature 21 °F 31 °F 55 °F (1958)
Min Temperature 1 °F 13 °F -14 °F (1993)
Degree Days  
Heating Degree Days 54    
Moisture  
Dew Point 11 °F    
Average Humidity 83    
Maximum Humidity 93    
Minimum Humidity 73    
Precipitation  
Precipitation 0.00 in - - ()
Sea Level Pressure  
Sea Level Pressure 29.90 in    
Wind  
Wind Speed 7 mph (SW)    
Max Wind Speed 13 mph    
Max Gust Speed -    
Visibility 10 miles    
Events Snow    
Averages and records for this station are not official NWS values.
T = Trace of Precipitation, MM = Missing Value Source: NWS Daily Summary

Daily Weather History Graph

Daily Weather History Graph

Search for Another Location

Airport:

Trip Planner

Search our weather history database for the weather conditions in past years. The results will help you decide how hot, cold, wet, or windy it might be!

Date:

Astronomy

Feb. 23, 2013 Rise Set
Actual Time 7:00 AM CST 5:55 PM CST
Civil Twilight 6:31 AM CST 6:24 PM CST
Nautical Twilight 5:57 AM CST 6:57 PM CST
Astronomical Twilight 5:24 AM CST 7:31 PM CST
Moon 4:03 PM CST (2/23) 5:26 AM CST (2/23)
Length of Visible Light 11h 52m
Length of Day
10h 54m
Waxing Gibbous, 95% of the Moon is Illuminated
Feb 23
Waxing Gibbous
Feb 25
Full
Mar 4
Last Quarter
Mar 11
New
Mar 19
First Quarter

Hourly Weather History & Observations

Time (CST) Temp. Windchill Dew Point Humidity Pressure Visibility Wind Dir Wind Speed Gust Speed Precip Events Conditions
12:15 AM 17.6 °F 6.4 °F 14.0 °F 86% 29.89 in 10.0 mi West 9.2 mph - N/A Snow Light Snow
12:35 AM 17.6 °F 9.3 °F 14.0 °F 86% 29.89 in 7.0 mi West 5.8 mph - N/A Snow Light Snow
12:55 AM 17.6 °F 8.2 °F 14.0 °F 86% 29.88 in 7.0 mi West 6.9 mph - N/A Snow Light Snow
1:15 AM 17.6 °F 8.2 °F 14.0 °F 86% 29.89 in 7.0 mi SW 6.9 mph - N/A Snow Light Snow
1:35 AM 17.6 °F 6.4 °F 14.0 °F 86% 29.89 in 10.0 mi SW 9.2 mph - N/A Snow Light Snow
1:55 AM 17.6 °F 5.7 °F 14.0 °F 86% 29.89 in 7.0 mi SW 10.4 mph - N/A Snow Light Snow
2:16 AM 17.6 °F 5.0 °F 14.0 °F 86% 29.89 in 10.0 mi WSW 11.5 mph - N/A Snow Light Snow
2:36 AM 17.6 °F 4.3 °F 14.0 °F 86% 29.88 in 10.0 mi WSW 12.7 mph - N/A Snow Light Snow
2:55 AM 17.6 °F 4.3 °F 14.0 °F 86% 29.88 in 7.0 mi West 12.7 mph - N/A Snow Light Snow
3:15 AM 17.6 °F 5.7 °F 14.0 °F 86% 29.88 in 7.0 mi West 10.4 mph - N/A Snow Light Snow
3:35 AM 17.6 °F 4.3 °F 14.0 °F 86% 29.88 in 7.0 mi West 12.7 mph - N/A Snow Light Snow
3:55 AM 17.6 °F 6.4 °F 14.0 °F 86% 29.87 in 10.0 mi West 9.2 mph - N/A   Overcast
4:16 AM 17.6 °F 6.4 °F 14.0 °F 86% 29.87 in 10.0 mi West 9.2 mph - N/A   Overcast
4:35 AM 17.6 °F 6.4 °F 14.0 °F 86% 29.87 in 10.0 mi West 9.2 mph - N/A   Overcast
4:55 AM 17.6 °F 7.3 °F 14.0 °F 86% 29.88 in 10.0 mi West 8.1 mph - N/A   Overcast
5:16 AM 17.6 °F 7.3 °F 14.0 °F 86% 29.88 in 10.0 mi WSW 8.1 mph - N/A   Overcast
5:35 AM 17.6 °F 7.3 °F 14.0 °F 86% 29.88 in 10.0 mi WSW 8.1 mph - N/A   Overcast
5:55 AM 17.6 °F 8.2 °F 14.0 °F 86% 29.88 in 10.0 mi WSW 6.9 mph - N/A   Overcast
6:16 AM 17.6 °F 9.3 °F 14.0 °F 86% 29.88 in 10.0 mi WSW 5.8 mph - N/A   Overcast
6:35 AM 17.6 °F 8.2 °F 14.0 °F 86% 29.88 in 10.0 mi WSW 6.9 mph - N/A   Overcast
6:55 AM 17.6 °F 8.2 °F 14.0 °F 86% 29.88 in 10.0 mi WSW 6.9 mph - N/A   Overcast
7:15 AM 14.0 °F 3.9 °F 12.2 °F 93% 29.88 in 10.0 mi WSW 6.9 mph - N/A   Overcast
7:35 AM 14.0 °F 2.9 °F 10.4 °F 86% 29.89 in 10.0 mi SW 8.1 mph - N/A   Overcast
7:55 AM 14.0 °F 3.9 °F 10.4 °F 86% 29.89 in 10.0 mi WSW 6.9 mph - N/A   Overcast
8:15 AM 12.2 °F 0.7 °F 8.6 °F 85% 29.89 in 10.0 mi WSW 8.1 mph - N/A   Scattered Clouds
8:35 AM 12.2 °F 1.7 °F 8.6 °F 85% 29.89 in 10.0 mi SW 6.9 mph - N/A   Clear
8:56 AM 12.2 °F 2.9 °F 8.6 °F 85% 29.89 in 10.0 mi SW 5.8 mph - N/A   Mostly Cloudy
9:15 AM 12.2 °F 1.7 °F 8.6 °F 85% 29.90 in 10.0 mi WSW 6.9 mph - N/A   Scattered Clouds
10:16 AM 14.0 °F 3.9 °F 10.4 °F 86% 29.90 in 10.0 mi WSW 6.9 mph - N/A   Overcast
10:36 AM 17.6 °F 9.3 °F 12.2 °F 79% 29.90 in 10.0 mi SW 5.8 mph - N/A   Overcast
10:56 AM 17.6 °F 8.2 °F 12.2 °F 79% 29.90 in 10.0 mi WSW 6.9 mph - N/A   Overcast
11:16 AM 17.6 °F 7.3 °F 10.4 °F 73% 29.90 in 10.0 mi SSW 8.1 mph - N/A   Overcast
11:35 AM 17.6 °F 12.3 °F 12.2 °F 79% 29.90 in 10.0 mi WSW 3.5 mph - N/A   Overcast
11:56 AM 19.4 °F 12.8 °F 12.2 °F 74% 29.90 in 10.0 mi SW 4.6 mph - N/A   Overcast
12:15 PM 21.2 °F 11.7 °F 14.0 °F 74% 29.90 in 10.0 mi SW 8.1 mph - N/A   Overcast
12:35 PM 21.2 °F 11.7 °F 14.0 °F 74% 29.90 in 10.0 mi SSW 8.1 mph - N/A   Overcast
12:55 PM 21.2 °F 11.7 °F 14.0 °F 74% 29.90 in 10.0 mi SW 8.1 mph - N/A   Overcast
1:15 PM 19.4 °F 9.5 °F 14.0 °F 80% 29.89 in 10.0 mi SSW 8.1 mph - N/A   Overcast
1:35 PM 21.2 °F 10.9 °F 14.0 °F 74% 29.89 in 10.0 mi SW 9.2 mph - N/A   Overcast
1:56 PM 21.2 °F 10.9 °F 14.0 °F 74% 29.88 in 10.0 mi SW 9.2 mph - N/A   Scattered Clouds
2:16 PM 21.2 °F 11.7 °F 14.0 °F 74% 29.88 in 10.0 mi SW 8.1 mph - N/A   Clear
2:35 PM 21.2 °F 10.9 °F 14.0 °F 74% 29.88 in 10.0 mi SW 9.2 mph - N/A   Clear
2:56 PM 21.2 °F 12.6 °F 14.0 °F 74% 29.88 in 10.0 mi SW 6.9 mph - N/A   Clear
3:15 PM 21.2 °F 11.7 °F 14.0 °F 74% 29.88 in 10.0 mi SW 8.1 mph - N/A   Clear
3:36 PM 21.2 °F 12.6 °F 14.0 °F 74% 29.88 in 10.0 mi SSW 6.9 mph - N/A   Clear
3:56 PM 21.2 °F 13.6 °F 14.0 °F 74% 29.88 in 10.0 mi SW 5.8 mph - N/A   Clear
4:15 PM 21.2 °F 13.6 °F 14.0 °F 74% 29.89 in 10.0 mi SW 5.8 mph - N/A   Clear
4:36 PM 21.2 °F 13.6 °F 14.0 °F 74% 29.89 in 10.0 mi SSW 5.8 mph - N/A   Clear
4:56 PM 19.4 °F 14.3 °F 12.2 °F 74% 29.89 in 10.0 mi SSW 3.5 mph - N/A   Clear
5:16 PM 19.4 °F 12.8 °F 12.2 °F 74% 29.89 in 10.0 mi SW 4.6 mph - N/A   Clear
5:35 PM 17.6 °F - 10.4 °F 73% 29.89 in 10.0 mi Calm Calm - N/A   Clear
5:56 PM 17.6 °F - 10.4 °F 73% 29.90 in 10.0 mi Calm Calm - N/A   Clear
6:15 PM 14.0 °F - 8.6 °F 79% 29.90 in 10.0 mi Calm Calm - N/A   Clear
6:56 PM 12.2 °F - 8.6 °F 85% 29.91 in 10.0 mi Calm Calm - N/A   Clear
7:16 PM 12.2 °F - 8.6 °F 85% 29.91 in 10.0 mi Calm Calm - N/A   Clear
7:35 PM 10.4 °F 4.0 °F 6.8 °F 85% 29.92 in 10.0 mi ESE 3.5 mph - N/A   Clear
7:56 PM 10.4 °F 4.0 °F 8.6 °F 92% 29.92 in 10.0 mi ESE 3.5 mph - N/A   Clear
8:15 PM 5.0 °F - 3.2 °F 92% 29.92 in 10.0 mi Calm Calm - N/A   Clear
8:36 PM 8.6 °F - 6.8 °F 92% 29.93 in 10.0 mi Calm Calm - N/A   Clear
8:56 PM 5.0 °F -2.1 °F 3.2 °F 92% 29.94 in 10.0 mi SE 3.5 mph - N/A   Clear
9:15 PM 5.0 °F - 3.2 °F 92% 29.94 in 10.0 mi Calm Calm - N/A   Clear
9:36 PM 5.0 °F - 3.2 °F 92% 29.94 in 10.0 mi Calm Calm - N/A   Clear
9:55 PM 5.0 °F - 1.4 °F 85% 29.95 in 10.0 mi Calm Calm - N/A   Clear
10:15 PM 5.0 °F - 3.2 °F 92% 29.95 in 10.0 mi Calm Calm - N/A   Clear
10:36 PM 6.8 °F - 3.2 °F 85% 29.95 in 10.0 mi Calm Calm - N/A   Clear
10:55 PM 1.4 °F - -0.4 °F 92% 29.96 in 7.0 mi Calm Calm - N/A   Clear
11:15 PM 3.2 °F - 1.4 °F 92% 29.96 in 10.0 mi Calm Calm - N/A   Clear
11:35 PM 3.2 °F - 1.4 °F 92% 29.96 in 10.0 mi Calm Calm - N/A   Clear
11:55 PM 8.6 °F - 5.0 °F 85% 29.96 in 10.0 mi Calm Calm - N/A   Clear